Flag for United Kingdom Weather past 2 weeks in St Helens, England, United Kingdom

Now
46 °F

Sprinkles. Passing clouds.


Feels Like: 37 °F
Forecast: 44 / 49 °F
Wind: 32 mph from West

Location: Liverpool Airport

Current Time: Dec 20, 2014 at 3:53:41 AM

Latest Report: Dec 20, 2014 at 2:50 AM


Visibility: N/A

Pressure: 30.09 "Hg

Humidity: 76%

Dew point: 39 °F

Location of St HelensLocation

Historic Weather in St Helens — Graph

°F

St Helens temperature yesterday

Maximum temperature yesterday: 48 °F (at 12:20 AM)
Minimum temperature yesterday: 45 °F (at 4:50 AM)
Average temperature yesterday: 46 °F

Past Weeks' High & Low Weather Summary

 TemperatureHumidityPressure
High55 °F (Dec 18, 4:20 AM)100% (Dec 6, 5:50 AM)30.36 "Hg (Dec 6, 5:50 AM)
Low34 °F (Dec 6, 2:20 AM)62% (Dec 10, 2:20 PM)29.15 "Hg (Dec 12, 3:50 AM)
Average44 °F84%29.84 "Hg
* Reported Dec 5 1:20 AM — Dec 20 1:50 AM, St Helens, Weather by CustomWeather, © 2014

Note: Actual official high and low records may vary slightly from our data, if they occured in-between our weather recording intervals... More about our weather records

Advertising

St Helens weather history for previous 24 hours

 ConditionsComfort  
Time TempWeatherWind HumidityBarometerVisibility
1:50 AM
Dec 20
46 °FPassing clouds.24 mph76%30.09 "HgN/A
1:20 AM45 °FPassing clouds.22 mph81%30.09 "HgN/A
12:50 AM46 °FPassing clouds.21 mph76%30.12 "HgN/A
12:20 AM46 °FPassing clouds.20 mph76%30.12 "HgN/A
11:50 PM
Dec 19
46 °FPassing clouds.22 mph71%30.09 "HgN/A
11:20 PM46 °FClear.24 mph71%30.09 "Hg10 mi
10:50 PM45 °FPassing clouds.23 mph76%30.09 "HgN/A
10:20 PM46 °FPassing clouds.23 mph76%30.09 "HgN/A
9:50 PM46 °FSprinkles. Passing clouds.24 mph76%30.09 "HgN/A
9:20 PM45 °FSprinkles. Passing clouds.21 mph81%30.09 "HgN/A
8:50 PM46 °FSprinkles. Passing clouds.23 mph76%30.07 "HgN/A
8:20 PM46 °FSprinkles. Passing clouds.22 mph76%30.07 "HgN/A
7:50 PM46 °FSprinkles. Passing clouds.25 mph76%30.07 "HgN/A
7:20 PM45 °FSprinkles. Passing clouds.18 mph81%30.07 "HgN/A
6:50 PM46 °FSprinkles. Passing clouds.25 mph76%30.04 "HgN/A
6:20 PM45 °FSprinkles. Passing clouds.18 mph81%30.04 "Hg6 mi
5:50 PM46 °FSprinkles. Passing clouds.21 mph76%30.04 "Hg6 mi
5:20 PM45 °FSprinkles. Passing clouds.23 mph81%30.04 "Hg6 mi
4:50 PM45 °FSprinkles. Passing clouds.16 mph81%30.01 "Hg5 mi
4:20 PM45 °FSprinkles. Passing clouds.18 mph81%30.01 "Hg5 mi
3:50 PM45 °FSprinkles. Scattered clouds.15 mph81%29.98 "HgN/A
3:20 PM46 °FSprinkles. Scattered clouds.21 mph76%29.98 "HgN/A
2:50 PM46 °FSprinkles. Scattered clouds.26 mph71%29.95 "HgN/A
2:20 PM46 °FSprinkles. Scattered clouds.24 mph76%29.95 "HgN/A
1:50 PM46 °FSprinkles. Scattered clouds.28 mph71%29.95 "HgN/A
1:20 PM46 °FSprinkles. Scattered clouds.23 mph76%29.95 "Hg6 mi
12:50 PM46 °FPassing clouds.26 mph71%29.92 "HgN/A
12:20 PM48 °FPassing clouds.25 mph71%29.92 "HgN/A
11:50 AM46 °FScattered clouds.22 mph76%29.92 "HgN/A
11:20 AM46 °FScattered clouds.21 mph76%29.92 "HgN/A
10:50 AM46 °FScattered showers. Scattered clouds.21 mph76%29.92 "HgN/A
10:20 AM46 °FScattered showers. Scattered clouds.22 mph76%29.89 "HgN/A
9:50 AM46 °FSprinkles. Scattered clouds.20 mph76%29.86 "HgN/A
9:20 AM45 °FSprinkles. Scattered clouds.21 mph81%29.86 "HgN/A
8:50 AM46 °FScattered clouds.22 mph76%29.86 "HgN/A
8:20 AM46 °FLight rain. Passing clouds.21 mph76%29.83 "HgN/A
7:50 AM45 °FPassing clouds.20 mph76%29.80 "HgN/A
7:20 AM45 °FPassing clouds.20 mph76%29.80 "HgN/A
6:50 AM46 °FPassing clouds.14 mph71%29.80 "HgN/A
6:20 AM45 °FPassing clouds.15 mph76%29.77 "HgN/A
5:50 AM45 °FPassing clouds.17 mph76%29.77 "HgN/A
5:20 AM46 °FPassing clouds.20 mph76%29.77 "HgN/A
4:50 AM45 °FPassing clouds.21 mph76%29.74 "HgN/A
4:20 AM46 °FPassing clouds.21 mph71%29.74 "HgN/A
3:50 AM46 °FPassing clouds.17 mph76%29.74 "HgN/A
3:20 AM48 °FPassing clouds.13 mph76%29.74 "HgN/A
Weather by CustomWeather, © 2014

See weather overviewHow to use our weather pages